Location: Ciula Mare
(45.6000°N, 22.8167°E)
Time: 11:55:09
(UTC+00:00)

Cosmos 1814 Rocket - Pass Details

Date: 03 February 2023
Orbit: 744 x 786 km, 74.1° (Epoch: 31 March)

Event Time Altitude Azimuth Distance (km) Brightness Sun altitude
Rises 18:19:29 0° 337° (NNW) 3,284 7.6 -28.5°
Reaches altitude 10° 18:21:52 10° 336° (NNW) 2,354 6.8 -28.9°
Enters shadow 18:26:17 60° 319° (NW) 901 4.4 -29.7°
